ONEWEB-0232 (48781 NORAD) Tracking and Keplerian Element Data

This shows tracking and keplerian element data for the satellite.

Feedback or suggestion? Click here.




ElementValue
Catalog48781
NameONEWEB-0232
Epoch Orbit178
Epoch Day170.58334491
Epoch Year2021
RAAN268.8773
Inclination87.3999
Eccentricity0.0009397
Argument of Perigee187.7189
Mean Anonmoly229.124
Mean Motion15.39442368
Decay Rate-0.00758579
L11 48781U 21045Q 21170.58334491 -.00758579 00000-0 -21043-1 0 9992
L22 48781 87.3999 268.8773 0009397 187.7189 229.1240 15.39442368 1786

Live tracking and technical data element details for ONEWEB-0232 (NORAD 48781). ONEWEB-0232 can be tracked NOW for your location showing map with azimuth and elevation plus other details from your city location.

Track the satellite on the map from your city or location and see movement details for azimuth, elevation, latitude, longitude, range, height, and movement on the map or in text.







IsCatalogInMostPopularTable: catalog: 48781, numindb: 7
Update: records affected: 1



GetName: 48781 ONEWEB-0232

Hit Count: updated at: Mon, 21 Jun 2021 04:19:59 GMT